CZ-6A DEB

Satellite information

Favourite Embed

Satellite Type and Status

DEBRISIN ORBIT

Key statistics

Satellite CZ-6A DEB at a glance.

Uptime

1129

Days in orbit

Revolutions

≈ 14.3

Per day

Orbit

SSO

Sun Synchronous Orbit

Inclination

98.8

Latest

Satellite identification and parameters

Extended collection of information and parameters for CZ-6A DEB.

Object identification

Identified? True

Debris? True

Object name: CZ-6A DEB

International designator: 2022-151HN

Object number (NORAD): 54486

Object ID (CCSDS): 54486

Country: PEOPLES REPUBLIC OF CHINA (PRC)

Current information (Y/N): Y

RCS size: SMALL

Orbital parameters

Period: 100.754 minutes

Inclination: 98.81 deg

SMA: 7172.442 km

Apoapsis: 849.799 km

Periapsis: 738.814 km

RAAN: 358.5782 deg

Eccentricy: 0.0077369

Argument of periapsis: 158.5838 deg

Mean anomaly: 201.861 deg

Mean motion: 14.29230265 rev/day

Mean motion (dot): 0.00010623 rev/day2

B* drag term: 0.004059 1/REarth

Two-line elements (TLE)

Creation date: Dec. 12, 2025, 7:16 a.m.

Reference frame: TEME

Reference center: EARTH

Epoch: Dec. 11, 2025, 11:40 p.m. UTC

TLE line 0: 0 CZ-6A DEB

TLE line 1: 1 54486U 22151HN 25345.98656028 .00010623 00000-0 40590-2 0 9993

TLE line 2: 2 54486 98.8100 358.5782 0077369 158.5838 201.8610 14.29230265158953

Live tracking on map

Real-time ground track for satellite CZ-6A DEB.

In-orbit conjunctions

A list of the most updated potential collisions computed for object CZ-6A DEB.

Target Orbit TCA Probability of collision Miss distance Type
COSMOS 1110 LEO 2025-06-29 14:58:36 0.0002019052 470.0 (m) PAYLOAD
SL-3 R/B LEO 2025-01-16 11:19:55 0.0001214533 298.0 (m) ROCKET BODY

Associated space launch

Chinese satellite reported for atmospheric/ocean/environmental/spatial parameter research purposes, details TBD.

CZ-6A DEB was lifted into orbit during the mission ‘Long March 6A | Yunhai 3’, on board a Long March 6A space rocket.

The launch took place on Nov. 11, 2022, 10:52 p.m. from Launch Complex 9A.

For more information about the launch, click the button.

Launch to space Long March 6A | Yunhai 3
Long March 6A | Yunhai 3

Agency: N/A

Status: Launch Successful

Launch date: Nov. 11, 2022, 10:52 p.m. UTC

Rocket: Long March 6A

Launch pad: Launch Complex 9A

Location: Taiyuan Satellite Launch Center, People's Republic of China

...

Latest news about this satellite

There are no fresh news available about this satellite. Check back as we update our databases every day.


Newsletter sign-up

Weekly statistics, charts and insights to help you stay on top of the space industry.